Torna al catalogo

KUIPER-00151

AttivoComunicazioniLEO
NORAD 65771·PAYLOAD·🇺🇸 United States

Lanciato Sep 25, 2025 da Cape Canaveral Space Force Station

Loading…

Prossimi Passaggi (prossime 24 ore)

TLE

AggiornatoSource: CelesTrak SupGP

Epoca: Sep 15, 2026, 02:10 UTC

1 65771C 25217K   26258.09075232  .00000578  00000+0  75711-4 0  2586
2 65771  51.9000 285.5934 0000515  67.6648  39.2706 14.79928157    18

Traccia KUIPER-00151 in tempo reale con AllMySat

Download on the App Store